Time,TemperatureF,DewpointF,PressureIn,WindDirection,WindDirectionDegrees,WindSpeedMPH,WindSpeedGustMPH,Humidity,HourlyPrecipIn,Conditions,Clouds,dailyrainin,SolarRadiationWatts/m^2,SoftwareType,DateUTC
2013-04-21 00:00:00,24.0,16.0,-100.00,ENE,67,0.0,-999.0,71,-99.99,,,-99.99,0.000000,,2013-04-21 04:00:00,
2013-04-21 00:43:00,24.0,16.0,-100.00,ENE,67,0.0,-999.0,71,-99.99,,,-99.99,0.000000,,2013-04-21 04:43:00,
2013-04-21 00:53:00,24.0,16.0,-100.00,ENE,67,0.0,-999.0,71,-99.99,,,-99.99,0.000000,,2013-04-21 04:53:00,
2013-04-21 01:00:00,23.0,17.0,-100.00,NE,45,0.0,-999.0,76,-99.99,,,-99.99,0.000000,,2013-04-21 05:00:00,
2013-04-21 01:43:00,23.0,17.0,-100.00,NE,45,0.0,-999.0,76,-99.99,,,-99.99,0.000000,,2013-04-21 05:43:00,
2013-04-21 01:52:00,23.0,17.0,-100.00,NE,45,0.0,-999.0,76,-99.99,,,-99.99,0.000000,,2013-04-21 05:52:00,
2013-04-21 02:00:00,22.0,16.0,-100.00,NE,45,0.0,-999.0,78,-99.99,,,-99.99,0.000000,,2013-04-21 06:00:00,
2013-04-21 02:42:00,22.0,16.0,-100.00,NE,45,0.0,-999.0,78,-99.99,,,-99.99,0.000000,,2013-04-21 06:42:00,
2013-04-21 02:52:00,22.0,16.0,-100.00,NE,45,0.0,-999.0,78,-99.99,,,-99.99,0.000000,,2013-04-21 06:52:00,
2013-04-21 03:00:00,21.0,16.0,-100.00,NE,45,0.0,-999.0,81,-99.99,,,-99.99,0.000000,,2013-04-21 07:00:00,
2013-04-21 03:42:00,21.0,16.0,-100.00,NE,45,0.0,-999.0,81,-99.99,,,-99.99,0.000000,,2013-04-21 07:42:00,
2013-04-21 03:52:00,21.0,16.0,-100.00,NE,45,0.0,-999.0,81,-99.99,,,-99.99,0.000000,,2013-04-21 07:52:00,
2013-04-21 04:00:00,21.0,16.0,-100.00,NE,45,0.0,-999.0,83,-99.99,,,-99.99,0.000000,,2013-04-21 08:00:00,
2013-04-21 04:42:00,21.0,16.0,-100.00,NE,45,0.0,-999.0,83,-99.99,,,-99.99,0.000000,,2013-04-21 08:42:00,
2013-04-21 04:52:00,21.0,16.0,-100.00,NE,45,0.0,-999.0,83,-99.99,,,-99.99,0.000000,,2013-04-21 08:52:00,
2013-04-21 05:00:00,21.0,16.0,-100.00,ENE,67,0.0,-999.0,80,-99.99,,,-99.99,0.000000,,2013-04-21 09:00:00,
2013-04-21 05:43:00,21.0,16.0,-100.00,ENE,67,0.0,-999.0,80,-99.99,,,-99.99,0.000000,,2013-04-21 09:43:00,
2013-04-21 05:53:00,21.0,16.0,-100.00,ENE,67,0.0,-999.0,80,-99.99,,,-99.99,0.000000,,2013-04-21 09:53:00,
2013-04-21 06:00:00,20.0,16.0,-100.00,NE,45,0.0,-999.0,84,-99.99,,,-99.99,0.000000,,2013-04-21 10:00:00,
2013-04-21 06:42:00,20.0,16.0,-100.00,NE,45,0.0,-999.0,84,-99.99,,,-99.99,0.000000,,2013-04-21 10:42:00,
2013-04-21 06:52:00,20.0,16.0,-100.00,NE,45,0.0,-999.0,84,-99.99,,,-99.99,0.000000,,2013-04-21 10:52:00,
2013-04-21 07:00:00,20.0,15.0,-100.00,ENE,67,1.0,-999.0,79,-99.99,,,-99.99,3.480000,,2013-04-21 11:00:00,
2013-04-21 07:42:00,20.0,15.0,-100.00,ENE,67,1.0,-999.0,79,-99.99,,,-99.99,3.480000,,2013-04-21 11:42:00,
2013-04-21 07:52:00,20.0,15.0,-100.00,ENE,67,1.0,-999.0,79,-99.99,,,-99.99,3.480000,,2013-04-21 11:52:00,
2013-04-21 08:00:00,24.0,16.0,-100.00,East,90,0.0,-999.0,70,-99.99,,,-99.99,90.480003,,2013-04-21 12:00:00,
2013-04-21 08:42:00,24.0,16.0,-100.00,East,90,0.0,-999.0,70,-99.99,,,-99.99,90.480003,,2013-04-21 12:42:00,
2013-04-21 08:52:00,24.0,16.0,-100.00,East,90,0.0,-999.0,70,-99.99,,,-99.99,90.480003,,2013-04-21 12:52:00,
2013-04-21 09:00:00,30.0,15.0,-100.00,SSE,157,1.0,-999.0,53,-99.99,,,-99.99,238.960007,,2013-04-21 13:00:00,
2013-04-21 09:42:00,30.0,15.0,-100.00,SSE,157,1.0,-999.0,53,-99.99,,,-99.99,238.960007,,2013-04-21 13:42:00,
2013-04-21 09:52:00,30.0,15.0,-100.00,SSE,157,1.0,-999.0,53,-99.99,,,-99.99,238.960007,,2013-04-21 13:52:00,
2013-04-21 10:00:00,33.0,15.0,-100.00,SE,135,3.0,-999.0,47,-99.99,,,-99.99,404.839996,,2013-04-21 14:00:00,
2013-04-21 10:42:00,33.0,15.0,-100.00,SE,135,3.0,-999.0,47,-99.99,,,-99.99,404.839996,,2013-04-21 14:42:00,
2013-04-21 10:52:00,33.0,15.0,-100.00,SE,135,3.0,-999.0,47,-99.99,,,-99.99,404.839996,,2013-04-21 14:52:00,
2013-04-21 11:00:00,37.0,15.0,-100.00,South,180,3.0,-999.0,40,-99.99,,,-99.99,547.520020,,2013-04-21 15:00:00,
2013-04-21 11:43:00,37.0,15.0,-100.00,South,180,3.0,-999.0,40,-99.99,,,-99.99,547.520020,,2013-04-21 15:43:00,
2013-04-21 11:53:00,37.0,15.0,-100.00,South,180,3.0,-999.0,40,-99.99,,,-99.99,547.520020,,2013-04-21 15:53:00,
2013-04-21 12:00:00,38.0,15.0,-100.00,SSW,202,3.0,-999.0,40,-99.99,,,-99.99,540.559998,,2013-04-21 16:00:00,
2013-04-21 12:42:00,38.0,15.0,-100.00,SSW,202,3.0,-999.0,40,-99.99,,,-99.99,540.559998,,2013-04-21 16:42:00,
2013-04-21 12:53:00,38.0,15.0,-100.00,SSW,202,3.0,-999.0,40,-99.99,,,-99.99,540.559998,,2013-04-21 16:53:00,
2013-04-21 13:00:00,40.0,14.0,-100.00,SSW,202,3.0,-999.0,34,-99.99,,,-99.99,689.039978,,2013-04-21 17:00:00,
2013-04-21 13:42:00,40.0,14.0,-100.00,SSW,202,3.0,-999.0,34,-99.99,,,-99.99,689.039978,,2013-04-21 17:42:00,
2013-04-21 13:52:00,40.0,14.0,-100.00,SSW,202,3.0,-999.0,34,-99.99,,,-99.99,689.039978,,2013-04-21 17:52:00,
2013-04-21 14:00:00,41.0,13.0,-100.00,SW,225,5.0,-999.0,30,-99.99,,,-99.99,646.119995,,2013-04-21 18:00:00,
2013-04-21 14:42:00,41.0,13.0,-100.00,SW,225,5.0,-999.0,30,-99.99,,,-99.99,646.119995,,2013-04-21 18:42:00,
2013-04-21 14:52:00,41.0,13.0,-100.00,SW,225,5.0,-999.0,30,-99.99,,,-99.99,646.119995,,2013-04-21 18:52:00,
2013-04-21 15:00:00,44.0,12.0,-100.00,SSW,202,5.0,-999.0,27,-99.99,,,-99.99,593.919983,,2013-04-21 19:00:00,
2013-04-21 15:43:00,44.0,12.0,-100.00,SSW,202,5.0,-999.0,27,-99.99,,,-99.99,593.919983,,2013-04-21 19:43:00,
2013-04-21 15:52:00,44.0,12.0,-100.00,SSW,202,5.0,-999.0,27,-99.99,,,-99.99,593.919983,,2013-04-21 19:52:00,
2013-04-21 16:00:00,45.0,10.0,-100.00,SSW,202,5.0,-999.0,24,-99.99,,,-99.99,475.600006,,2013-04-21 20:00:00,
2013-04-21 16:42:00,45.0,10.0,-100.00,SSW,202,5.0,-999.0,24,-99.99,,,-99.99,475.600006,,2013-04-21 20:42:00,
2013-04-21 16:52:00,45.0,10.0,-100.00,SSW,202,5.0,-999.0,24,-99.99,,,-99.99,475.600006,,2013-04-21 20:52:00,
2013-04-21 17:00:00,47.0,10.0,-100.00,SSW,202,6.0,-999.0,21,-99.99,,,-99.99,519.679993,,2013-04-21 21:00:00,
2013-04-21 17:43:00,47.0,10.0,-100.00,SSW,202,6.0,-999.0,21,-99.99,,,-99.99,519.679993,,2013-04-21 21:43:00,
2013-04-21 17:53:00,47.0,10.0,-100.00,SSW,202,6.0,-999.0,21,-99.99,,,-99.99,519.679993,,2013-04-21 21:53:00,
2013-04-21 18:00:00,46.0,13.0,-100.00,South,180,5.0,-999.0,25,-99.99,,,-99.99,219.240005,,2013-04-21 22:00:00,
2013-04-21 18:43:00,46.0,13.0,-100.00,South,180,5.0,-999.0,25,-99.99,,,-99.99,219.240005,,2013-04-21 22:43:00,
2013-04-21 18:53:00,46.0,13.0,-100.00,South,180,5.0,-999.0,25,-99.99,,,-99.99,219.240005,,2013-04-21 22:53:00,
2013-04-21 19:00:00,45.0,14.0,-100.00,South,180,5.0,-999.0,28,-99.99,,,-99.99,122.959999,,2013-04-21 23:00:00,
2013-04-21 19:43:00,45.0,14.0,-100.00,South,180,5.0,-999.0,28,-99.99,,,-99.99,122.959999,,2013-04-21 23:43:00,
2013-04-21 19:52:00,45.0,14.0,-100.00,South,180,5.0,-999.0,28,-99.99,,,-99.99,122.959999,,2013-04-21 23:52:00,
2013-04-21 21:00:00,43.0,21.0,-100.00,SSW,202,4.0,-999.0,40,-99.99,,,-99.99,3.480000,,2013-04-22 01:00:00,
2013-04-21 21:42:00,43.0,21.0,-100.00,SSW,202,4.0,-999.0,40,-99.99,,,-99.99,3.480000,,2013-04-22 01:42:00,
2013-04-21 21:52:00,43.0,21.0,-100.00,SSW,202,4.0,-999.0,40,-99.99,,,-99.99,3.480000,,2013-04-22 01:52:00,
2013-04-21 22:00:00,37.0,23.0,-100.00,WSW,247,1.0,-999.0,55,-99.99,,,-99.99,0.000000,,2013-04-22 02:00:00,
2013-04-21 22:42:00,37.0,23.0,-100.00,WSW,247,1.0,-999.0,55,-99.99,,,-99.99,0.000000,,2013-04-22 02:42:00,
2013-04-21 22:52:00,37.0,23.0,-100.00,WSW,247,1.0,-999.0,55,-99.99,,,-99.99,0.000000,,2013-04-22 02:52:00,
2013-04-21 23:00:00,38.0,23.0,-100.00,East,90,2.0,-999.0,55,-99.99,,,-99.99,0.000000,,2013-04-22 03:00:00,
2013-04-21 23:43:00,38.0,23.0,-100.00,East,90,2.0,-999.0,55,-99.99,,,-99.99,0.000000,,2013-04-22 03:43:00,
2013-04-21 23:53:00,38.0,23.0,-100.00,East,90,2.0,-999.0,55,-99.99,,,-99.99,0.000000,,2013-04-22 03:53:00,